Location: Newark
(35.6799°N, 139.7636°E)
Time: 15:41:01
(UTC+00:00)

Explorer 11/Cluster Stage 4 - Pass Details

Date: 19 December 2019
Orbit: 467 x 1259 km, 28.8° (Epoch: 18 January)

Event Time Altitude Azimuth Distance (km) Brightness Sun altitude
Rises 20:44:23 0° 238° (WSW) 4,056 9.9 -12.2°
Reaches altitude 10° 20:47:20 10° 232° (SW) 3,157 9.4 -11.6°
Maximum altitude 20:54:49 42° 165° (SSE) 1,725 8.6 -10.2°
Drops below altitude 10° 21:02:19 10° 98° (E) 3,172 11.2 -8.8°
Sets 21:05:17 0° 92° (E) 4,077 11.8 -8.3°
